Regional Weather Roundup
Issued by NWS

Home | Current Version | Previous Version | Graphics & Text | Print | Product List | Glossary On
Versions: 1 2 3 4 5 6 7 8 9 10 11 12 13 14 15 16 17 18 19 20 21 22 23 24 25 26 27 28 29 30 31 32 33 34 35 36 37 38 39 40 41 42 43 44 45 46 47 48 49 50
000
ASUS43 KIND 201509
RWRIN

WEATHER ROUNDUP FOR INDIANA
NATIONAL WEATHER SERVICE INDIANAPOLIS IN
1000 AM EST MON FEB 20 2017

NOTE: "FAIR" INDICATES FEW OR NO CLOUDS BELOW 12,000 FEET WITH NO
SIGNIFICANT WEATHER AND/OR OBSTRUCTIONS TO VISIBILITY.

* - STATION DOES NOT REPORT WEATHER SUCH AS PRECIPITATION OR FOG.

+ - STATION NOT QUALITY CONTROLLED BY THE NATIONAL WEATHER SERVICE.
    USE DATA WITH CAUTION...ESPECIALLY DEWPOINT AND RELATIVE
    HUMIDITY OBSERVATIONS.

INZ001>003-010>013-019-020-201600-
NORTHWEST INDIANA

CITY           SKY/WX    TMP DP  RH WIND       PRES   REMARKS
GARY /AIRPORT/ PTSUNNY   54  46  76 SE12      30.15F HAZE
KNOX *+        CLOUDY    50  32  50 SE8       30.19R
LA PORTE +     CLOUDY    49  45  84 SE6       30.19S FOG
MICHIGAN CITY+ CLOUDY    54  45  71 SE7       30.18S
MONTICELLO +   CLOUDY    48  45  90 SE5       30.18R FOG
RENSSELAER +   CLOUDY    50  50 100 SE9       30.16F FOG
VALPARAISO     CLOUDY    50  47  89 SE10      30.17F FOG

$$

LMZ046-743>745-201600-
SOUTHERN LAKE MICHIGAN

STATION/POSITION TIME  TEMP    WIND        PRES    WAVE
                       AIR SEA DIR/SP/G            HT
                 (UTC) (F)     (DEG/KT/KT) (MB)    (FT)
BURNS HARBOR     1440   52     160/  7/ 14 1021.7F
MICHIGAN CITY    1440   51     130/  9/ 10   N/A

$$

INZ004-005-014>016-021>024-201600-
NORTH CENTRAL INDIANA

CITY           SKY/WX    TMP DP  RH WIND       PRES   REMARKS
ELKHART        CLOUDY    48  37  66 SE6       30.20S
GOSHEN         MOSUNNY   49  37  63 SE10      30.20F
LOGANSPORT +   CLOUDY    48  48 100 SE7       30.20R FOG
PERU/GRISSOM   PTSUNNY   48  48 100 S8        30.18S FOG
ROCHESTER +    CLOUDY    52  46  82 SE5       30.20S FOG
SOUTH BEND     CLOUDY    48  40  73 SE8       30.20S
WARSAW +       MOSUNNY   48  45  87 SE7       30.21S FOG

$$

INZ006>009-017-018-025>027-201600-
NORTHEAST INDIANA

CITY           SKY/WX    TMP DP  RH WIND       PRES   REMARKS
ANGOLA *+      SUNNY     45  37  76 E8        30.22F
AUBURN +       CLOUDY    43  36  75 E7        30.24F
FORT WAYNE     CLOUDY    46  41  82 E6        30.22F
HUNTINGTON +   PTSUNNY   44  43  96 CALM      30.21F FOG
KENDALLVILLE + CLOUDY    44  36  74 SE7       30.23S

$$

INZ028-029-035-036-043>045-051>053-201600-
WEST CENTRAL INDIANA

CITY           SKY/WX    TMP DP  RH WIND       PRES   REMARKS
GREENCASTLE +  FOG       46  46 100 SE7       30.19R VSB 3/4
LAFAYETTE      CLOUDY    52  49  89 SE6       30.17S FOG
TERRE HAUTE    MOSUNNY   48  46  93 E5        30.17R FOG

$$

INZ030>032-037>040-046>048-054>057-064-065-201600-
CENTRAL INDIANA

CITY           SKY/WX    TMP DP  RH WIND       PRES   REMARKS
ANDERSON       SUNNY     46  46 100 SE5       30.22S FOG
CP ATTERBURY + CLOUDY    43  43 100 E5        30.21F VSB<1/4
COLUMBUS       FOG       43  43 100 CALM      30.21F VSB 0
FRANKFORT +    CLOUDY    51  51  97 S9        30.21R FOG
GREENWOOD *+   CLOUDY    45  45 100 SE5       30.20F VSB<1/4
INDIANAPOLIS   FOG       46  45  96 SE9       30.19F VSB 1/4
-EAGLE CREEK   FOG       46  45  96 SE5       30.19S VSB 1/4
KOKOMO +       CLOUDY    46  46 100 SE7       30.21S FOG
MARION +       CLOUDY    45  45 100 S7        30.22R FOG
MT COMFORT *+  CLOUDY    45  45 100 SE6       30.21S VSB 1/4
SHELBYVILLE    CLOUDY    48  46  93 SE8       30.20F FOG
ZIONSVILLE +   FOG       45  45 100 SE7       30.20S VSB 3/4

$$

INZ033-034-041-042-049-050-058-059-201600-
EAST CENTRAL INDIANA

CITY           SKY/WX    TMP DP  RH WIND       PRES   REMARKS
MUNCIE         CLOUDY    49  46  90 S6        30.21S FOG

$$

INZ060-061-067>069-081>083-085>088-201600-
SOUTHWEST INDIANA

CITY           SKY/WX    TMP DP  RH WIND       PRES   REMARKS
EVANSVILLE     CLOUDY    53  49  86 SE5       30.17S FOG
HUNTINGBURG *+ MOSUNNY   52  51  97 SE7       30.17F
WASHINGTON +   PTSUNNY   49  48  94 SE6       30.17R FOG

$$

INZ062-063-066-070>080-084-089>092-201600-
SOUTH CENTRAL AND SOUTHEAST INDIANA

CITY           SKY/WX    TMP DP  RH WIND       PRES   REMARKS
BEDFORD +      FOG       45  43  93 SE5       30.18F VSB 1/4
BLOOMINGTON    FOG       47  45  93 SE6       30.19S VSB 1/2
MADISON *+     CLOUDY    43  43 100 E5        30.23F VSB<1/4
NORTH VERNON + FOG      N/A N/A N/A E5        30.22F VSB 1/4
SEYMOUR +      FOG       45  45 100 E5        30.19F VSB 1/4

$$





USA.gov is the U.S. government's official web portal to all federal, state and local government web resources and services.